| time (UTC) | temp F | wind direction | speed MPH | gust MPH | rain 1hr in | rain 24hr in | rain mn in | humidity % | barometer mb |
| 20260505000705 | 66 | 283 | 10.0 | 20.0 | 0.00 | 0.00 | 0.00 | 65 | 1010.2 |
| 20260505000204 | 66 | 261 | 9.0 | 15.0 | 0.00 | 0.00 | 0.00 | 65 | 1010.2 |
| 20260504235704 | 67 | 255 | 8.0 | 12.0 | 0.00 | 0.00 | 0.00 | 68 | 1010.3 |
| 20260504235205 | 67 | 277 | 9.0 | 14.0 | 0.00 | 0.00 | 0.00 | 67 | 1010.3 |
| 20260504234705 | 67 | 286 | 10.0 | 15.0 | 0.00 | 0.00 | 0.00 | 66 | 1010.3 |
| 20260504234204 | 67 | 288 | 9.0 | 16.0 | 0.00 | 0.00 | 0.00 | 67 | 1010.3 |
| 20260504233705 | 67 | 282 | 10.0 | 15.0 | 0.00 | 0.00 | 0.00 | 65 | 1010.2 |
| 20260504233204 | 67 | 283 | 10.0 | 14.0 | 0.00 | 0.00 | 0.00 | 65 | 1010.2 |
| 20260504232705 | 67 | 271 | 9.0 | 13.0 | 0.00 | 0.00 | 0.00 | 66 | 1010.2 |
| 20260504232205 | 67 | 288 | 10.0 | 16.0 | 0.00 | 0.00 | 0.00 | 67 | 1010.3 |
| 20260504231703 | 67 | 270 | 10.0 | 16.0 | 0.00 | 0.00 | 0.00 | 65 | 1010.3 |
| 20260504231204 | 67 | 261 | 11.0 | 15.0 | 0.00 | 0.00 | 0.00 | 65 | 1010.3 |
| 20260504230704 | 67 | 269 | 7.0 | 12.0 | 0.00 | 0.00 | 0.00 | 67 | 1010.4 |
| 20260504230205 | 67 | 285 | 7.0 | 13.0 | 0.00 | 0.00 | 0.00 | 67 | 1010.4 |
| 20260504225704 | 67 | 300 | 7.0 | 15.0 | 0.00 | 0.00 | 0.00 | 69 | 1010.4 |
| 20260504225205 | 66 | 285 | 9.0 | 15.0 | 0.00 | 0.00 | 0.00 | 69 | 1010.5 |
| 20260504224704 | 66 | 268 | 12.0 | 20.0 | 0.00 | 0.00 | 0.00 | 66 | 1010.7 |
| 20260504224206 | 67 | 257 | 9.0 | 15.0 | 0.00 | 0.00 | 0.00 | 67 | 1010.7 |
| 20260504223704 | 66 | 253 | 11.0 | 17.0 | 0.00 | 0.00 | 0.00 | 66 | 1010.7 |
| 20260504223204 | 67 | 262 | 10.0 | 16.0 | 0.00 | 0.00 | 0.00 | 66 | 1010.6 |
| 20260504222704 | 67 | 260 | 10.0 | 13.0 | 0.00 | 0.00 | 0.00 | 66 | 1010.7 |
| 20260504221204 | 66 | 262 | 10.0 | 16.0 | 0.00 | 0.00 | 0.00 | 67 | 1010.7 |
| 20260504220705 | 65 | 288 | 10.0 | 16.0 | 0.00 | 0.00 | 0.00 | 69 | 1010.7 |
| 20260504220205 | 66 | 266 | 11.0 | 18.0 | 0.00 | 0.00 | 0.00 | 67 | 1010.8 |
| 20260504215205 | 66 | 264 | 11.0 | 16.0 | 0.00 | 0.00 | 0.00 | 66 | 1010.8 |
| 20260504214205 | 65 | 283 | 7.0 | 12.0 | 0.00 | 0.00 | 0.00 | 70 | 1011.0 |
| 20260504213705 | 65 | 293 | 9.0 | 14.0 | 0.00 | 0.00 | 0.00 | 69 | 1011.0 |
| 20260504213204 | 65 | 302 | 10.0 | 15.0 | 0.00 | 0.00 | 0.00 | 68 | 1011.1 |
| 20260504212703 | 66 | 291 | 8.0 | 12.0 | 0.00 | 0.00 | 0.00 | 67 | 1011.1 |
| 20260504212205 | 66 | 286 | 6.0 | 9.0 | 0.00 | 0.00 | 0.00 | 68 | 1011.1 |
| 20260504211703 | 66 | 279 | 5.0 | 12.0 | 0.00 | 0.00 | 0.00 | 68 | 1011.1 |
| 20260504211203 | 67 | 306 | 8.0 | 13.0 | 0.00 | 0.00 | 0.00 | 65 | 1011.1 |
| 20260504210704 | 66 | 297 | 6.0 | 9.0 | 0.00 | 0.00 | 0.00 | 67 | 1011.1 |
| 20260504210204 | 66 | 282 | 6.0 | 10.0 | 0.00 | 0.00 | 0.00 | 66 | 1011.0 |
| 20260504205705 | 66 | 307 | 7.0 | 10.0 | 0.00 | 0.00 | 0.00 | 68 | 1011.0 |
| 20260504205205 | 66 | 292 | 7.0 | 12.0 | 0.00 | 0.00 | 0.00 | 68 | 1011.0 |
| 20260504204704 | 66 | 295 | 7.0 | 10.0 | 0.00 | 0.00 | 0.00 | 65 | 1011.0 |
| 20260504204205 | 66 | 283 | 7.0 | 12.0 | 0.00 | 0.00 | 0.00 | 64 | 1011.0 |
| 20260504203705 | 67 | 282 | 8.0 | 12.0 | 0.00 | 0.00 | 0.00 | 64 | 1011.0 |
| 20260504203205 | 67 | 284 | 8.0 | 12.0 | 0.00 | 0.00 | 0.00 | 64 | 1011.0 |
| 20260504202704 | 66 | 302 | 6.0 | 9.0 | 0.00 | 0.00 | 0.00 | 66 | 1011.0 |
| 20260504202205 | 66 | 281 | 7.0 | 9.0 | 0.00 | 0.00 | 0.00 | 66 | 1011.0 |
| 20260504200705 | 67 | 311 | 7.0 | 10.0 | 0.00 | 0.00 | 0.00 | 64 | 1011.1 |
| 20260504200204 | 67 | 284 | 6.0 | 9.0 | 0.00 | 0.00 | 0.00 | 64 | 1011.0 |
| 20260504195704 | 67 | 274 | 6.0 | 10.0 | 0.00 | 0.00 | 0.00 | 64 | 1011.0 |
| 20260504195206 | 67 | 265 | 6.0 | 10.0 | 0.00 | 0.00 | 0.00 | 64 | 1011.1 |
| 20260504194704 | 67 | 269 | 4.0 | 10.0 | 0.00 | 0.00 | 0.00 | 65 | 1011.0 |
| 20260504194204 | 67 | 307 | 5.0 | 9.0 | 0.00 | 0.00 | 0.00 | 65 | 1011.0 |
| 20260504193705 | 67 | 305 | 6.0 | 10.0 | 0.00 | 0.00 | 0.00 | 63 | 1011.0 |
| 20260504193204 | 68 | 296 | 9.0 | 12.0 | 0.00 | 0.00 | 0.00 | 60 | 1011.0 |
| 20260504192204 | 73 | 294 | 7.0 | 12.0 | 0.00 | 0.00 | 0.00 | 55 | 1010.9 |
| 20260504191203 | 74 | 276 | 6.0 | 9.0 | 0.00 | 0.00 | 0.00 | 53 | 1010.8 |
| 20260504190705 | 74 | 314 | 7.0 | 9.0 | 0.00 | 0.00 | 0.00 | 50 | 1010.8 |
| 20260504190204 | 74 | 274 | 3.0 | 8.0 | 0.00 | 0.00 | 0.00 | 52 | 1010.8 |
| 20260504185205 | 73 | 292 | 3.0 | 7.0 | 0.00 | 0.00 | 0.00 | 53 | 1010.8 |
| 20260504184704 | 74 | 303 | 5.0 | 9.0 | 0.00 | 0.00 | 0.00 | 52 | 1010.8 |
| 20260504183706 | 73 | 286 | 2.0 | 7.0 | 0.00 | 0.00 | 0.00 | 55 | 1010.9 |
| 20260504183204 | 73 | 311 | 2.0 | 5.0 | 0.00 | 0.00 | 0.00 | 56 | 1011.0 |
| 20260504182704 | 72 | 327 | 2.0 | 5.0 | 0.00 | 0.00 | 0.00 | 55 | 1011.0 |
| 20260504181205 | 71 | 277 | 3.0 | 8.0 | 0.00 | 0.00 | 0.00 | 54 | 1011.1 |
| 20260504180704 | 72 | 292 | 2.0 | 8.0 | 0.00 | 0.00 | 0.00 | 54 | 1011.1 |
| 20260504180205 | 72 | 306 | 3.0 | 7.0 | 0.00 | 0.00 | 0.00 | 58 | 1011.0 |
| 20260504175704 | 72 | 334 | 3.0 | 8.0 | 0.00 | 0.00 | 0.00 | 56 | 1011.0 |
| 20260504174704 | 71 | 323 | 3.0 | 8.0 | 0.00 | 0.00 | 0.00 | 58 | 1011.0 |
| 20260504173705 | 71 | 332 | 3.0 | 7.0 | 0.00 | 0.00 | 0.00 | 57 | 1011.0 |
| 20260504173204 | 71 | 322 | 3.0 | 5.0 | 0.00 | 0.00 | 0.00 | 57 | 1011.1 |
| 20260504172703 | 71 | 316 | 4.0 | 8.0 | 0.00 | 0.00 | 0.00 | 58 | 1011.1 |
| 20260504172205 | 71 | 294 | 4.0 | 8.0 | 0.00 | 0.00 | 0.00 | 57 | 1011.1 |
| 20260504171705 | 70 | 359 | 3.0 | 7.0 | 0.00 | 0.00 | 0.00 | 58 | 1011.1 |
| 20260504171204 | 70 | 310 | 5.0 | 10.0 | 0.00 | 0.00 | 0.00 | 56 | 1011.1 |
| 20260504170705 | 70 | 292 | 4.0 | 8.0 | 0.00 | 0.00 | 0.00 | 59 | 1011.2 |
| 20260504160204 | 69 | 287 | 4.0 | 8.0 | 0.00 | 0.00 | 0.00 | 58 | 1011.1 |
| 20260504150706 | 66 | 292 | 1.0 | 2.0 | 0.00 | 0.00 | 0.00 | 68 | 1010.6 |
| 20260504150204 | 64 | 290 | 0.0 | 1.0 | 0.00 | 0.00 | 0.00 | 67 | 1010.6 |
| 20260504141204 | 55 | 294 | 0.0 | 3.0 | 0.00 | 0.00 | 0.00 | 81 | 1010.4 |
| 20260504140203 | 54 | 263 | 2.0 | 3.0 | 0.00 | 0.00 | 0.00 | 81 | 1010.3 |
| 20260504130705 | 50 | 244 | 1.0 | 2.0 | 0.00 | 0.00 | 0.00 | 81 | 1010.0 |
| 20260504130204 | 50 | 244 | 1.0 | 2.0 | 0.00 | 0.00 | 0.00 | 82 | 1010.0 |
| 20260504120205 | 48 | 169 | 2.0 | 3.0 | 0.00 | 0.00 | 0.00 | 86 | 1010.1 |
| 20260504110705 | 49 | 232 | 1.0 | 3.0 | 0.00 | 0.00 | 0.00 | 81 | 1009.9 |
| 20260504110204 | 49 | 232 | 1.0 | 2.0 | 0.00 | 0.00 | 0.00 | 80 | 1009.9 |
| 20260504081703 | 60 | 180 | 3.0 | 6.0 | 0.00 | 0.00 | 0.00 | 61 | 1009.3 |
| 20260504081203 | 59 | 182 | 2.0 | 3.0 | 0.00 | 0.00 | 0.00 | 61 | 1009.3 |
| 20260504080705 | 59 | 187 | 2.0 | 3.0 | 0.00 | 0.00 | 0.00 | 63 | 1009.4 |
| 20260504080204 | 58 | 185 | 1.0 | 2.0 | 0.00 | 0.00 | 0.00 | 65 | 1009.4 |
| 20260504070204 | 53 | 215 | 2.0 | 3.0 | 0.00 | 0.00 | 0.00 | 79 | 1009.7 |
| 20260504060204 | 55 | 214 | 0.0 | 0.0 | 0.00 | 0.00 | 0.00 | 80 | 1010.0 |
| 20260504050705 | 59 | 214 | 0.0 | 0.0 | 0.00 | 0.00 | 0.00 | 70 | 1010.0 |
| 20260504050204 | 59 | 214 | 0.0 | 0.0 | 0.00 | 0.00 | 0.00 | 69 | 1010.0 |
| 20260504045704 | 60 | 214 | 0.0 | 0.0 | 0.00 | 0.00 | 0.00 | 69 | 1009.9 |
| 20260504045204 | 60 | 214 | 0.0 | 0.0 | 0.00 | 0.00 | 0.00 | 69 | 1010.0 |
| 20260504044705 | 60 | 291 | 0.0 | 0.0 | 0.00 | 0.00 | 0.00 | 68 | 1009.9 |
| 20260504044204 | 60 | 291 | 0.0 | 2.0 | 0.00 | 0.00 | 0.00 | 68 | 1009.9 |
| 20260504042204 | 61 | 223 | 0.0 | 0.0 | 0.00 | 0.00 | 0.00 | 67 | 1009.9 |
| 20260504041704 | 61 | 223 | 0.0 | 2.0 | 0.00 | 0.00 | 0.00 | 66 | 1009.9 |
| 20260504040704 | 61 | 209 | 1.0 | 3.0 | 0.00 | 0.00 | 0.00 | 68 | 1009.8 |
| 20260504040205 | 60 | 209 | 2.0 | 3.0 | 0.00 | 0.00 | 0.00 | 69 | 1009.8 |
| 20260504035205 | 63 | 194 | 2.0 | 3.0 | 0.00 | 0.00 | 0.00 | 65 | 1009.6 |
| 20260504034704 | 64 | 194 | 3.0 | 3.0 | 0.00 | 0.00 | 0.00 | 63 | 1009.6 |
| 20260504034204 | 65 | 193 | 2.0 | 3.0 | 0.00 | 0.00 | 0.00 | 61 | 1009.6 |
| 20260504033204 | 67 | 193 | 2.0 | 3.0 | 0.00 | 0.00 | 0.00 | 57 | 1009.6 |
| 20260504032205 | 69 | 211 | 1.0 | 2.0 | 0.00 | 0.00 | 0.00 | 54 | 1009.6 |
| 20260504031704 | 70 | 211 | 1.0 | 2.0 | 0.00 | 0.00 | 0.00 | 51 | 1009.5 |
| 20260504031205 | 71 | 211 | 0.0 | 1.0 | 0.00 | 0.00 | 0.00 | 51 | 1009.6 |
| 20260504030206 | 72 | 211 | 1.0 | 1.0 | 0.00 | 0.00 | 0.00 | 50 | 1009.6 |
| 20260504025704 | 72 | 211 | 1.0 | 2.0 | 0.00 | 0.00 | 0.00 | 49 | 1009.6 |
| 20260504025205 | 73 | 211 | 2.0 | 3.0 | 0.00 | 0.00 | 0.00 | 49 | 1009.7 |
| 20260504024703 | 74 | 211 | 2.0 | 3.0 | 0.00 | 0.00 | 0.00 | 47 | 1009.7 |
| 20260504024204 | 76 | 212 | 2.0 | 3.0 | 0.00 | 0.00 | 0.00 | 42 | 1009.7 |
| 20260504023706 | 77 | 191 | 2.0 | 3.0 | 0.00 | 0.00 | 0.00 | 39 | 1009.8 |
| 20260504023206 | 78 | 231 | 2.0 | 3.0 | 0.00 | 0.00 | 0.00 | 37 | 1009.8 |
| 20260504022704 | 78 | 272 | 1.0 | 3.0 | 0.00 | 0.00 | 0.00 | 35 | 1009.9 |
| 20260504022204 | 78 | 288 | 2.0 | 3.0 | 0.00 | 0.00 | 0.00 | 37 | 1010.0 |
| 20260504021203 | 78 | 286 | 2.0 | 3.0 | 0.00 | 0.00 | 0.00 | 36 | 1010.0 |
| 20260504020704 | 78 | 288 | 2.0 | 3.0 | 0.00 | 0.00 | 0.00 | 36 | 1010.0 |
| 20260504020203 | 78 | 289 | 3.0 | 3.0 | 0.00 | 0.00 | 0.00 | 34 | 1010.1 |
| 20260504014704 | 79 | 281 | 2.0 | 6.0 | 0.00 | 0.00 | 0.00 | 33 | 1010.2 |
| 20260504012704 | 79 | 207 | 3.0 | 5.0 | 0.00 | 0.00 | 0.00 | 35 | 1010.5 |
| 20260504012204 | 79 | 242 | 2.0 | 6.0 | 0.00 | 0.00 | 0.00 | 35 | 1010.4 |
| 20260504011704 | 79 | 211 | 3.0 | 7.0 | 0.00 | 0.00 | 0.00 | 35 | 1010.6 |
| 20260504011204 | 79 | 233 | 2.0 | 3.0 | 0.00 | 0.00 | 0.00 | 36 | 1010.6 |
| 20260504010704 | 79 | 298 | 2.0 | 3.0 | 0.00 | 0.00 | 0.00 | 35 | 1010.7 |
| 20260504010205 | 79 | 328 | 3.0 | 6.0 | 0.00 | 0.00 | 0.00 | 32 | 1010.7 |
| 20260504005206 | 79 | 273 | 3.0 | 7.0 | 0.00 | 0.00 | 0.00 | 34 | 1010.8 |
| 20260504004703 | 79 | 294 | 3.0 | 8.0 | 0.00 | 0.00 | 0.00 | 34 | 1011.0 |
| 20260504003706 | 79 | 310 | 2.0 | 8.0 | 0.00 | 0.00 | 0.00 | 34 | 1011.0 |
| 20260504003204 | 79 | 314 | 2.0 | 8.0 | 0.00 | 0.00 | 0.00 | 36 | 1011.0 |
| 20260504002704 | 79 | 290 | 4.0 | 9.0 | 0.00 | 0.00 | 0.00 | 32 | 1011.0 |
| 20260504002205 | 79 | 320 | 4.0 | 8.0 | 0.00 | 0.00 | 0.00 | 34 | 1011.1 |
| 20260504001705 | 79 | 329 | 3.0 | 9.0 | 0.00 | 0.00 | 0.00 | 35 | 1011.1 |